Погода в Мамакане

Погода в Мамакане : погода сейчас, прогноз погоды и архив. Всё, что Вы хотите узнать о погоде в Мамакане!

Поиск расширенной информации на нашем сайте:

Другие новости

Новости СМИ2

Главная страница сайта

Новости сайта

03.07.2017

Напоминаем, что на нашем специализированном сайте Метеоцентр.Азия вы можете получить высокодетализированные автоматические прогнозы погоды по пунктам России, СНГ и мира в авиационном формате (включающие направление и скорость ветра, видимость, явления погоды, количество и форму облачности, нижнюю и верхнюю границу облачности).


Погода в Мамакане - сегодня

Время (UTC), дата Ветер
(°,м/с) 
Видим.   Явления Облачность Т
(°С)
Тd
(°С)
f(%) Тe
(°С)
Pmin
(гПа)
dP
(гПа)
Po
(мм)
O2
(г/м3)
Тmin Tmax R s Состояние
почвы
18 20.08.17 тихо ()   н/о    10/10 1000 м кучево-дожд. 
[Cb cap]
+13.1 +12 93 +18  999.5  -2.5  728  278           
21 20.08.17 тихо ()   4000 м  слаб. ливневой дождь  10/10 300 м кучево-дожд. 
[Cb cap]
+11.6 +11.4 99 +15  997.7  -1.9  727  279           
00 21.08.17 280 (З) 4000 м  слаб. ливневой дождь  10/10 300 м кучево-дожд. 
[Cb cap]
+11.8 +11.6 99 +17  996.7  -1  726  278  +11.6      влажная 
03 21.08.17 280 (З) 4000 м  в посл. час ливневой дождь  10/10 600 м кучево-дожд. 
[Cb cap]
+13.7 +12 89 +20  995.6  -0.9  725  276           
06 21.08.17 270 (З) 10 км  {ливн. осадки}  10/10 600 м кучево-дожд. 
[Cb cap]
+14.9 +12.5 86 +21  995.3  -0.1  725  275           
09 21.08.17 260 (З) 20000 м  {ливн. осадки}  10/10 600 м кучево-дожд. 
[Cb cap]
+15.4 +13.1 86 +22  995.8  0.5  725  274           
12 21.08.17 280 (З) 20000 м  осадки на расстоянии{ливн. осадки}  10/10 1000 м кучево-дожд. 
[Cb cap]
+14 +11.6 85 +19  997.8  1.9  727  276    +16.4  0.9     
15 21.08.17 тихо ()   н/о    10/10 1000 м кучево-дожд. 
[Cb cap]
+12.9 +11.4 91 +17  999.2  1.1  728  278           
18 21.08.17 тихо ()   н/о    10/10 1000 м кучево-дожд. 
[Cb cap]
+12.4 +11.5 94 +16  999.6  0.4  728  278           
21 21.08.17 240 (ЮЗ) 20000 м    10/10 1000 м кучево-дожд. 
[Cb cap]
+12.4 +11.5 94 +18  1000.3  0.7  729  279           
00 22.08.17 250 (З) 20000 м  осадки на расстоянии  10/10 600 м кучево-дожд. 
[Cb cap]
+13.9 +10.9 82 +17  1001.5  1.3  730  278  +12.3        влажная 
03 22.08.17 270 (З) 20000 м  в посл. час ливневой дождь  10/10 600 м кучево-дожд. 
[Cb cap]
+13.6 +11.5 87 +18  1003.9  2.4  731  278           
06 22.08.17 250 (З) 10 км  дым{ливн. осадки}  9/8 1000 м кучево-дожд., верхняя 
[Cb cap|Ci fib]
+16.4 +10.4 68 +19  1005.5  1.8  733  277           
09 22.08.17 260 (З) 10 км  дым  10/10 1000 м кучево-дожд. 
[Cb cap]
+17.6 +11.4 67 +22  1007.2  1.7  734  276           
12 22.08.17 240 (ЮЗ) 10 км  слаб. ливневой дождь  10/10 1000 м кучево-дожд. 
[Cb cap]
+14.5 +12.7 89 +20  1009.3  1.8  735  279    +18.2  0.4     
15 22.08.17 тихо ()   н/о  {ливн. осадки}  10/10 600 м кучево-дожд. 
[Cb cap]
+13 +12.3 96 +18  1010.1  0.7  736  281           
18 22.08.17 270 (З) н/о  туман{ливн. осадки}  ?/?  
+10.9 +10.7 99 +14  1011.6  1.1  737  283           
21 22.08.17 260 (З) 0500 м  туман  ?/?  
+7.9 +7.7 99 +9  1012.1  0.2  737  287           
00 23.08.17 110 (В) 0500 м  туман  ?/?  
+8.5 +7.9 96 +10  1012  737  287  +7    0.7    влажная 
03 23.08.17 110 (В) 2000 м  дымка{туман}  10/10 300 м кучево-дожд. 
[Cb cap]
+11 +10 94 +14  1011.4  -0.4  737  283           
06 23.08.17 110 (В) 2000 м  дымка{туман}  10/8 300 м кучево-дожд., верхняя 
[Cb cap|Cs]
+15.5 +11.2 76 +20  1009  -1.8  735  278           
09 23.08.17 160 (Ю) 2000 м  мгла  9/8 1000 м кучево-дожд., верхняя 
[Cb cap|Ci fib]
+16 +11.4 74 +21  1008  -0.9  734  277           
12 23.08.17 тихо ()   2000 м  дымка  10/9 1000 м кучево-дожд., верхняя 
[Cb cap|Cs]
+13.4 +12.7 96 +19  1008.5  0.2  735  280    +16       
15 23.08.17 тихо ()   н/о  дымка  10/10 1000 м кучево-дожд. 
[Cb cap]
+11.4 +11 97 +14  1008.8  0.1  735  282           
18 23.08.17 тихо ()   н/о  дымка  10/9 1000 м кучево-дожд., верхняя 
[Cb cap|Ci fib]
+10.8 +10.8 100 +13  1008.9  735  283           
Время (UTC), дата Ветер
(°,м/с) 
Видим.   Явления Облачность Т
(°С)
Тd
(°С)
f(%) Тe
(°С)
Pmin
(гПа)
dP
(гПа)
Po
(мм)
O2
(г/м3)
Тmin Tmax R s Состояние
почвы

Для получения пояснительной информации подведите курсор к названию столбца.

ПОГОДА в Мамакане - архив

Всё, что Вы хотите узнать о погоде в Мамакане - удобно и подробно!

Выберите нужную дату (начиная с 1 января 2015* года) и нажмите кнопку "Найти".
Будут отображены архивные сводки погоды по пункту Мамакан, начиная с указанной даты.


Отображать данные в формате CSV (для использования в таблицах Excel)


Внимание! Наш архив погоды предназначен исключительно для личного некоммерческого использования в познавательных целях. Если Вам необходимы официальные справки о состоянии погоды (для производственных, юридических, коммерческих и т.п. целей), обращайтесь в органы Росгидромета.

*Примечание: данная дата относится к архиву по метеостанциям СССР (Россия, СНГ, Балтия).
Архив по метеостанциям Зарубежной Европы и Азии (кроме Китая) хранится 10 дней, по другим регионам земного шара (Китай, Африка, Америка, Австралия, Океания) - 1 день.

Мамакан - район местоположения метеостанции


Название, широта, долгота, высота метеостанции:
Мамакан 57.82°ш. 114°д. 249 м над ур. моря [Российская Федерация]

Дополнительная информация

В oтличие oт бoльшинства пoгoдных сайтoв мы публикуем пoдрoбную метеoинфoрмацию в детальнoм прoфессиoнальнoм фoрмате.

Характеристики температуры и влажнoсти вoздуха измеряются на высoте 2 м в тени вдали oт зданий и деревьев.
Скoрoсть ветра измеряется на высoте 10 м (на урoвне рoста челoвека скoрoсть ветра ниже в 1.5-2 раза). Если метеoстанция нахoдится в гoрoде или в лесу, тo скoрoсть ветра занижена на 2-4 м/с пo сравнению с oткрытым местoм. Скoрoсть ветра над акватoриями крупных рек и oзёр, а также на вершинах хoлмoв на 2-5 м/с выше, чем в oбычных услoвиях.
Атмoсфернoе давление в разных тoчках местнoсти мoжет значительнo oтличаться oт давления на метеoстанции, в зависимoсти oт услoвий рельефа (при пoдъёме на 10 м давление пoнижается примернo на 1 мм рт.ст.).